Regional Weather Roundup
Issued by NWS New Orleans/Baton Rouge, LA

Home | Current Version | Previous Version | Text Only | Print | Product List | Glossary On
Versions: 1 2 3 4 5 6 7 8 9 10 11 12 13 14 15 16 17 18 19 20 21 22 23 24 25 26 27 28 29 30 31 32 33 34 35 36 37 38 39 40 41 42 43 44 45 46 47 48 49 50
631
ASUS44 KLIX 200707
RWRLIX
NEW ORLEANS REGIONAL WEATHER ROUNDUP
NATIONAL WEATHER SERVICE NEW ORLEANS LA
200 AM CDT MON APR 20 2015

NOTE: "FAIR" INDICATES FEW OR NO CLOUDS BELOW 12,000 FEET WITH NO
      SIGNIFICANT WEATHER AND/OR OBSTRUCTIONS TO VISIBILITY.
      SKY/WX - SKY CONDITION AND SIGNIFICANT WEATHER.
      TMP - AIR TEMPERATURE.     DP    - DEWPOINT TEMPERATURE.
      RH  - RELATIVE HUMIDITY.   PRES  - PRESSURE.
      HI  - HEAT INDEX.          WCI   - WIND CHILL INDEX.

*  THESE STATIONS ARE NOT NWS OR FAA STATIONS AND ARE NOT UNDER
   NWS QUALITY CONTROL.

LAZ038-040-048-061>063-065>067-069-200800-
SOUTHEAST LOUISIANA

CITY           SKY/WX    TMP DP  RH WIND       PRES   REMARKS
N.O. AUDUBON     N/A     73  70  90 MISG        N/A
N.O. INTL ARPT MOCLDY    72  68  87 W12       29.83S
N.O. LAKEFRONT PTCLDY    76  69  79 W20       29.83R
SLIDELL        PTCLDY    73  70  90 VRB3      29.83R
BATON ROUGE    CLOUDY    70  66  87 S10       29.82F
BOOTHVILLE     MOCLDY    74  73  97 NW5       29.84R FOG
BELLE CHASSE   MOCLDY    73  69  87 SW7       29.83R
BOGALUSA*        N/A     69  62  78 W3        29.83F
GALLIANO*      CLOUDY    76  71  83 W8        29.84F
NEW ROADS*       N/A     68  65  90 S3        29.80F
GONZALES*        N/A     71  71  99 S5        29.80F
HAMMOND*       MOCLDY    68  63  83 S3        29.83F
HOUMA*         CLOUDY    73  70  92 SW6       29.85F
PORT FOURCHON* PTSUNNY   75  72  88 W8G14     29.86F

$$

MSZ070-080>082-200800-
SOUTHERN MISSISSIPPI

CITY           SKY/WX    TMP DP  RH WIND       PRES   REMARKS
MCCOMB         CLOUDY    66  62  87 W5        29.80F
GULFPORT       PTCLDY    71  66  84 NW8       29.81R
BILOXI         PTCLDY    74  67  79 VRB3      29.80R
PASCAGOULA     CLEAR     73  67  81 VRB6      29.80F

$$

COASTAL OBSERVATIONS
LAKE AND NEARSHORE STATIONS

STATION/POSITION TIME  TEMP    WIND        PRES    WAVE
                       AIR SEA DIR/SP/G            HT/PER
                 (UTC) (F)     (DEG/KT/KT) (MB)    (FT/S)
PASCAGOULA       0600   74     230/ 14/ 19 1008.8
WAVELAND YACHT   0600   74 74  240/ 12/ 17 1009.3
GRAND ISLE       0600   74 76  270/  4/  5 1010.1
SOUTHWEST PASS   0600   72 63  210/  5/  6 1010.3
NEW CANAL        0600   74     230/  9/ 11 1010.3
SHELL BEACH      0600   74 77  210/  9/ 13 1009.0

OFFSHORE STATIONS

STATION/POSITION TIME  TEMP    WIND        PRES    WAVE
                       AIR SEA DIR/SP/G            HT/PER
                 (UTC) (F)     (DEG/KT/KT) (MB)    (FT/S)
64 S DAUPHIN ISL 0650   75 74  190/ 12/ 14 1009.7    4/ 6

$$




USA.gov is the U.S. government's official web portal to all federal, state and local government web resources and services.